Weather History for Mansfield, OH

Change the Weather History Date:

Friday, June 28, 2013

  Actual Average Record
Temperature  
Mean Temperature 69 °F 71 °F  
Max Temperature 79 °F 81 °F 99 °F (1934)
Min Temperature 61 °F 60 °F 44 °F (1958)
Degree Days  
Heating Degree Days 0 1  
Month to date heating degree days 39 53  
Since 1 June heating degree days 39 53  
Since 1 July heating degree days 6021 6270  
Cooling Degree Days 4 6  
Month to date cooling degree days 134 123  
Year to date cooling degree days 229 169  
Since 1 June cooling degree days 134 123  
Growing Degree Days 19 (Base 50)    
Moisture  
Dew Point 64 °F    
Average Humidity 82    
Maximum Humidity 100    
Minimum Humidity 64    
Precipitation  
Precipitation 0.22 in 0.15 in 1.29 in (1983)
Month to date precipitation 6.86 4.45  
Year to date precipitation 20.73 21.78  
Snow  
Snow 0.00 in 0.00 in - ()
Month to date snowfall 0.0 0.0  
Since 1 June snowfall 0.0 0.0  
Since 1 July snowfall 39.4 48.3  
Snow Depth 0.00 in    
Sea Level Pressure  
Sea Level Pressure 29.61 in    
Wind  
Wind Speed 6 mph (West)    
Max Wind Speed 9 mph    
Max Gust Speed 35 mph    
Visibility 8 miles    
Events Rain , Thunderstorm    
T = Trace of Precipitation, MM = Missing Value Source: NWS Daily Summary

Daily Weather History Graph

Daily Weather History Graph

Search for Another Location

Airport:

Trip Planner

Search our weather history database for the weather conditions in past years. The results will help you decide how hot, cold, wet, or windy it might be!

Date:

Astronomy

Jun. 28, 2013 Rise Set
Actual Time 6:01 AM EDT 9:05 PM EDT
Civil Twilight 5:27 AM EDT 9:39 PM EDT
Nautical Twilight 4:44 AM EDT 10:21 PM EDT
Astronomical Twilight 3:54 AM EDT 11:11 PM EDT
Moon No Moon Rise 12:09 PM EDT (6/28)
Length of Visible Light 16h 11m
Length of Day
15h 04m
Waning Gibbous, 66% of the Moon is Illuminated
Jun 28
Waning Gibbous
Jun 30
Last Quarter
Jul 8
New
Jul 15
First Quarter
Jul 22
Full

Hourly Weather History & Observations

Time (EDT) Temp. Dew Point Humidity Pressure Visibility Wind Dir Wind Speed Gust Speed Precip Events Conditions
12:52 AM 66.0 °F 66.0 °F 100% 29.63 in 7.0 mi SSW 5.8 mph - N/A   Clear
1:52 AM 64.9 °F 64.9 °F 100% 29.63 in 10.0 mi SW 3.5 mph - N/A   Clear
2:52 AM 66.9 °F 64.9 °F 93% 29.63 in 10.0 mi WSW 4.6 mph - N/A   Clear
3:52 AM 69.1 °F 66.0 °F 90% 29.62 in 10.0 mi WSW 5.8 mph - N/A   Scattered Clouds
4:10 AM 68.0 °F 66.2 °F 94% 29.64 in 10.0 mi WSW 4.6 mph - N/A   Mostly Cloudy
4:26 AM 68.0 °F 66.2 °F 94% 29.64 in 10.0 mi WSW 4.6 mph - N/A   Mostly Cloudy
4:40 AM 68.0 °F 66.2 °F 94% 29.64 in 10.0 mi WSW 4.6 mph - N/A   Mostly Cloudy
4:52 AM 68.0 °F 66.0 °F 93% 29.61 in 10.0 mi WSW 4.6 mph - N/A   Overcast
5:24 AM 69.8 °F 66.2 °F 88% 29.64 in 9.0 mi North 9.2 mph - N/A   Overcast
5:36 AM 66.2 °F 66.2 °F 100% 29.64 in 5.0 mi NNW 6.9 mph - N/A   Mostly Cloudy
5:52 AM 66.9 °F 66.0 °F 97% 29.60 in 4.0 mi Calm Calm - N/A   Mostly Cloudy
6:17 AM 66.2 °F 66.2 °F 100% 29.64 in 2.0 mi Calm Calm - N/A   Overcast
6:52 AM 66.9 °F 66.9 °F 100% 29.62 in 3.0 mi WNW 3.5 mph - N/A   Overcast
7:21 AM 68.0 °F 66.2 °F 94% 29.63 in 4.0 mi WNW 3.5 mph - N/A   Overcast
7:28 AM 68.0 °F 66.2 °F 94% 29.63 in 4.0 mi WSW 3.5 mph - N/A   Overcast
7:52 AM 68.0 °F 66.9 °F 96% 29.60 in 4.0 mi West 5.8 mph - N/A   Overcast
8:52 AM 68.0 °F 66.9 °F 96% 29.61 in 4.0 mi West 4.6 mph - N/A   Overcast
9:52 AM 71.1 °F 66.9 °F 87% 29.61 in 5.0 mi WNW 6.9 mph - N/A   Overcast
10:18 AM 71.6 °F 68.0 °F 88% 29.63 in 5.0 mi West 6.9 mph - N/A   Overcast
10:32 AM 73.4 °F 66.2 °F 78% 29.62 in 7.0 mi West 9.2 mph - N/A   Mostly Cloudy
10:52 AM 73.0 °F 66.9 °F 81% 29.60 in 9.0 mi West 9.2 mph - N/A   Mostly Cloudy
11:00 AM 73.4 °F 66.2 °F 78% 29.62 in 10.0 mi West 6.9 mph - N/A   Mostly Cloudy
11:18 AM 75.2 °F 64.4 °F 69% 29.62 in 10.0 mi West 11.5 mph 17.3 mph N/A   Scattered Clouds
11:52 AM 77.0 °F 66.0 °F 69% 29.59 in 10.0 mi West 9.2 mph 16.1 mph N/A   Scattered Clouds
12:52 PM 77.0 °F 64.9 °F 66% 29.57 in 10.0 mi West 9.2 mph - N/A   Partly Cloudy
1:52 PM 75.0 °F 64.0 °F 69% 29.57 in 10.0 mi West 6.9 mph - N/A Thunderstorm Partly Cloudy
2:52 PM 63.0 °F 57.9 °F 84% 29.59 in 5.0 mi SW 8.1 mph - 0.10 in Rain Light Rain
3:10 PM 64.4 °F 59.0 °F 83% 29.60 in 10.0 mi SW 5.8 mph - 0.00 in Thunderstorm Mostly Cloudy
3:25 PM 66.2 °F 60.8 °F 83% 29.58 in 10.0 mi SW 4.6 mph - 0.00 in Rain Light Rain
3:52 PM 73.0 °F 63.0 °F 71% 29.54 in 10.0 mi WSW 9.2 mph - 0.00 in   Partly Cloudy
4:39 PM 68.0 °F 59.0 °F 73% 29.59 in 10.0 mi North 10.4 mph 19.6 mph N/A   Mostly Cloudy
4:52 PM 68.0 °F 60.1 °F 76% 29.57 in 10.0 mi North 8.1 mph - N/A   Scattered Clouds
5:15 PM 68.0 °F 62.6 °F 83% 29.59 in 10.0 mi North 5.8 mph - 0.00 in Thunderstorm Mostly Cloudy
5:43 PM 69.8 °F 60.8 °F 73% 29.59 in 10.0 mi WNW 3.5 mph - 0.00 in   Mostly Cloudy
5:52 PM 68.0 °F 61.0 °F 78% 29.57 in 9.0 mi Calm Calm - 0.00 in Rain Light Rain
6:01 PM 69.8 °F 60.8 °F 73% 29.58 in 10.0 mi NNW 4.6 mph - 0.01 in Thunderstorm Scattered Clouds
6:23 PM 68.0 °F 60.8 °F 78% 29.60 in 10.0 mi West 4.6 mph - 0.01 in Thunderstorm Clear
6:44 PM 66.2 °F 62.6 °F 88% 29.61 in 4.0 mi SW 6.9 mph - 0.03 in Rain Rain
6:52 PM 66.0 °F 63.0 °F 90% 29.59 in 4.0 mi SSW 6.9 mph - 0.05 in Rain Rain
7:52 PM 64.0 °F 62.1 °F 93% 29.60 in 7.0 mi West 6.9 mph - 0.03 in Rain Light Rain
8:52 PM 63.0 °F 62.1 °F 97% 29.59 in 10.0 mi NW 4.6 mph - 0.04 in   Scattered Clouds
9:52 PM 63.0 °F 62.1 °F 97% 29.60 in 10.0 mi West 3.5 mph - N/A   Clear
10:52 PM 61.0 °F 61.0 °F 100% 29.59 in 10.0 mi SW 4.6 mph - N/A   Clear
11:52 PM 62.1 °F 62.1 °F 100% 29.58 in 10.0 mi SW 4.6 mph - N/A   Clear